Regional Weather Roundup
Issued by NWS

Home | Current Version | Previous Version | Text Only | Print | Product List | Glossary On
Versions: 1 2 3 4 5 6 7 8 9 10 11 12 13 14 15 16 17 18 19 20 21 22 23 24 25 26 27 28 29 30 31 32 33 34 35 36 37 38 39 40 41 42 43 44 45 46
000
ASUS45 KBOU 202007
RWRCO

WEATHER ROUNDUP FOR COLORADO
NATIONAL WEATHER SERVICE DENVER/BOULDER CO
200 PM MDT SAT SEP 20 2014

NOTE: "FAIR" INDICATES FEW OR NO CLOUDS BELOW 12000 FEET WITH NO
SIGNIFICANT WEATHER AND/OR OBSTRUCTIONS TO VISIBILITY.

COZ001>005-013-030-031-202100-
...NORTHWEST COLORADO...

CITY           SKY/WX    TMP DP  RH WIND       PRES   REMARKS
CRAIG          SUNNY     78  31  17 CALM      30.28F
HAYDEN         SUNNY     75  27  16 CALM      30.30F
MEEKER         NOT AVBL
MOUNT WERNER   NOT AVBL
STEAMBOAT SPGS SUNNY     74  30  19 S3        30.32F
WALDEN         SUNNY     70  25  18 N3        30.40F
$$

COZ006>008-011-202100-
...WEST CENTRAL VALLEYS...

CITY           SKY/WX    TMP DP  RH WIND       PRES   REMARKS
GRAND JUNCTION SUNNY     86  44  23 CALM      30.11F
MONTROSE       SUNNY     83  45  26 W12       30.19F
EAGLE          MOSUNNY   81  37  21 S6        30.27F
RIFLE          SUNNY     83  37  19 VRB3      30.17F
DELTA          SUNNY     88  44  21 S8        30.13F
NUCLA          SUNNY     86  41  20 N6        30.19F
$$

COZ017>023-064>068-202100-
...SOUTHWEST COLORADO...

CITY           SKY/WX    TMP DP  RH WIND       PRES   REMARKS
DURANGO        SUNNY     85  38  18 S7        30.21F
CORTEZ         SUNNY     86  44  23 SW12      30.16F
PAGOSA SPRINGS SUNNY     81  23  12 W8        30.29F
TELLURIDE      NOT AVBL
WOLF CREEK PAS CLOUDY    57  32  38 W3        30.64S
$$

COZ009-010-012-014-032>034-037-058>063-202100-
...CENTRAL COLORADO...

CITY           SKY/WX    TMP DP  RH WIND       PRES   REMARKS
ASPEN          MOSUNNY   76  38  25 N10       30.32F
BUENA VISTA    MOSUNNY   77  30  18 CALM      30.33F
COPPER MTN     MOSUNNY   61  32  33 W9        30.67F
BERTHOUD PASS  FAIR      50  48  93 N5G17     30.73F
COTTONWOOD PAS MOSUNNY   70  32  24 SE6       30.49F
GUNNISON       SUNNY     77  36  22 N5        30.32F
KREMMLING      SUNNY     77  28  16 CALM      30.35F
LEADVILLE      PTSUNNY   70  29  21 N7        30.47F
MONARCH PASS   MOSUNNY   59  36  41 E10       30.75F
SALIDA         MOSUNNY   83  31  15 E5        30.37F
SUNLIGHT       SUNNY     63  37  39 N3        30.60F
WILKERSON PASS NOT AVBL
$$

COZ069>075-202100-
...SAN LUIS VALLEY/SANGRE DE CRISTO MOUNTAINS...

CITY           SKY/WX    TMP DP  RH WIND       PRES   REMARKS
ALAMOSA        SUNNY     80  35  19 VRB5      30.30F
LA VETA PASS   SUNNY     66  37  34 NE12G21   30.54S
SAGUACHE       NOT AVBL
$$

COZ035-036-038>040-202100-
...NORTHERN COLORADO FRONT RANGE...

CITY           SKY/WX    TMP DP  RH WIND       PRES   REMARKS
DENVER INTL AP MOSUNNY   78  47  33 NE12G20   30.24F
DMNS CITY PARK   N/A     77  46  33 SE1       30.24S
AURORA         MOSUNNY   77  47  34 N6        30.26F
FRONT RANGE AP NOT AVBL
ERIE MUNI ARPT SUNNY     78  45  30 E7        30.23S
BOULDER MUN AP SUNNY     75  46  35 CALM      30.24S
CENTENNIAL     MOSUNNY   76  47  35 VRB6      30.26F
BROOMFIELD     NOT AVBL
FORT COLLINS   SUNNY     79  48  34 SE3       30.23F
LONGMONT       SUNNY     81  48  31 E5        30.24F
$$

COZ041-046-047-076>085-087-088-202100-
...PIKES PEAK/PALMER DIVIDE AND SOUTHERN FOOTHILLS...

CITY           SKY/WX    TMP DP  RH WIND       PRES   REMARKS
COLO. SPRINGS  PTSUNNY   83  44  25 VRB6      30.27F
A. F. ACADEMY  SUNNY     79  44  28 VRB7      30.28F
ELLICOTT       NOT AVBL
FALCON         SUNNY     78  44  29 NE8       30.33F
FORT CARSON    PTSUNNY   81  46  28 E10       30.23F
LIMON          SUNNY     79  46  31 N14       30.24F
MONUMENT HILL  SUNNY     72  43  35 E6        30.33F
TRINIDAD       SUNNY     83  47  28 NE14      30.22F
$$

COZ042>045-048>051-090-091-202100-
...NORTHEAST COLORADO...

CITY           SKY/WX    TMP DP  RH WIND       PRES   REMARKS
GREELEY ARPT   SUNNY     77  46  33 SE6       30.22F
AKRON          SUNNY     78  48  34 MISG      30.21F
BURLINGTON     SUNNY     82  50  32 NE14G24   30.16S
WRAY           SUNNY     84  46  26 E7        30.15S
STERLING       SUNNY     82  52  34 NW5       30.17F
HOLYOKE        SUNNY     84  46  26 N5        30.16S
FORT MORGAN    SUNNY     77  48  35 E9        30.22F
$$

COZ086-089-092>099-202100-
...SOUTHEAST COLORADO...

CITY           SKY/WX    TMP DP  RH WIND       PRES   REMARKS
PUEBLO         SUNNY     87  45  23 SE7       30.15F
LA JUNTA       SUNNY     89  51  27 E14G23    30.13F
LAMAR          SUNNY     90  54  29 NE16G23   30.06F
SPRINGFIELD      N/A     87  53  31 NE9G18    30.11F
$$


USA.gov is the U.S. government's official web portal to all federal, state and local government web resources and services.